Location: Newark
(45.8667°N, 9.7333°E)
Time: 14:32:25
(UTC+00:00)

Transit 4A - Pass Details

Date: 26 January 2020
Orbit: 872 x 973 km, 66.8° (Epoch: 26 February)

Event Time Altitude Azimuth Distance (km) Brightness Sun altitude
Rises 04:27:29 0° 172° (S) 3,550 11.1 -24.8°
Reaches altitude 10° 04:30:29 10° 158° (SSE) 2,594 10.5 -24.2°
Maximum altitude 04:35:07 24° 107° (ESE) 1,791 10.1 -23.4°
Drops below altitude 10° 04:39:41 10° 57° (ENE) 2,559 10.9 -22.6°
Sets 04:42:37 0° 44° (NE) 3,491 11.5 -22.1°
